Flag for U.S.A. Weather past 2 weeks in Mason, Ohio, U.S.A.

Now
40 °F

Clear.


Feels Like: 40 °F
Forecast: 39 / 72 °F
Wind: No wind

Location: Butler County Regional Airport


UV Index: 5 (Moderate)

Visibility: 10 mi


Pressure: 30.26 "Hg

Humidity: 83%

Dew point: 35 °F

Location of MasonLocation

Historic Weather in Mason

°F

Mason temperature yesterday

Maximum temperature yesterday: 69 °F (at 3:53 PM)
Minimum temperature yesterday: 46 °F (at 5:53 AM)
Average temperature yesterday: 58 °F

Past Weeks' High & Low Weather Summary

 TemperatureHumidityPressure
High83 °F (Apr 13, 3:53 PM)100% (Apr 7, 12:53 PM)30.45 "Hg (Apr 7, 12:53 PM)
Low25 °F (Apr 16, 5:53 AM)26% (Apr 10, 3:53 PM)29.36 "Hg (Apr 7, 6:53 PM)
Average54 °F60%30.03 "Hg
* Reported Apr 5 2:53 AM — Apr 20 2:53 AM, Mason, Weather by CustomWeather, © 2014

Note: Actual official high and low records may vary slightly from our data, if they occured in-between our weather recording intervals... More about our weather records

Advertising

Historic Weather Conditions — Data for Previous 24 hours

 ConditionsComfort  
Time TempWeatherWind HumidityBarometerVisibility
2:53 AM
Apr 20
42 °FClear.No wind82%30.26 "Hg10 mi
1:53 AM43 °FClear.No wind79%30.27 "Hg10 mi
12:53 AM46 °FClear.No wind73%30.27 "Hg10 mi
11:53 PM
Apr 19
50 °FClear.No wind68%30.27 "Hg10 mi
10:53 PM54 °FClear.5 mph53%30.26 "Hg10 mi
9:53 PM53 °FClear.6 mph55%30.26 "Hg10 mi
8:53 PM58 °FSunny.6 mph44%30.26 "Hg10 mi
7:53 PM63 °FSunny.8 mph37%30.25 "Hg10 mi
6:53 PM66 °FSunny.9 mph33%30.25 "Hg10 mi
5:53 PM68 °FSunny.13 mph32%30.25 "Hg10 mi
4:53 PM68 °FSunny.13 mph33%30.26 "Hg10 mi
3:53 PM69 °FSunny.10 mph33%30.27 "Hg10 mi
2:53 PM68 °FSunny.13 mph38%30.29 "Hg10 mi
1:53 PM66 °FSunny.10 mph39%30.30 "Hg10 mi
12:53 PM65 °FSunny.9 mph47%30.32 "Hg10 mi
11:53 AM63 °FSunny.10 mph52%30.33 "Hg10 mi
10:53 AM60 °FSunny.10 mph58%30.34 "Hg10 mi
9:53 AM57 °FSunny.12 mph62%30.34 "Hg10 mi
8:53 AM53 °FSunny.9 mph69%30.34 "Hg9 mi
7:53 AM49 °FClear.7 mph74%30.32 "Hg9 mi
6:53 AM46 °FClear.No wind73%30.29 "Hg10 mi
5:53 AM46 °FClear.No wind73%30.27 "Hg10 mi
4:53 AM50 °FClear.5 mph61%30.25 "Hg10 mi
Weather by CustomWeather, © 2014

See weather overview